Retour au catalogue

COSMOS 2093

ActifMilitairePO
NORAD 20738·PAYLOAD·🇷🇺 Russia

Lancé Aug 8, 1990 depuis Plesetsk Cosmodrome

Loading…

Prochains Passages (prochaines 24 heures)

TLE

FraisSource: Space-Track

Époque: Sep 14, 2026, 16:45 UTC

1 20738U 90070D   26257.69840976  .00000004  00000-0 -34698-4 0  9996
2 20738  82.5704 243.5549 0007548 264.5156 268.6953 12.64096006665687

Suivez COSMOS 2093 en temps réel avec AllMySat

Download on the App Store